Regional Weather Roundup
Issued by NWS

Home | Current Version | Previous Version | Graphics & Text | Print | Product List | Glossary On
Versions: 1 2 3 4 5 6 7 8 9 10 11 12 13 14 15 16 17 18 19 20 21 22 23 24 25 26 27 28 29 30 31 32 33 34 35 36 37 38 39 40 41 42 43 44 45 46 47 48 49 50
000
ASUS43 KLMK 201802
RWRKY
KENTUCKY REGIONAL WEATHER ROUNDUP
NATIONAL WEATHER SERVICE LOUISVILLE KY
100 PM EST FRI JAN 20 2017

NOTE "FAIR" INDICATES FEW OR NO CLOUDS BELOW 12,000 FEET
WITH NO SIGNIFICANT WEATHER AND/OR OBSTRUCTIONS TO VISIBILITY.

KYZ001>023-026-027-061>063-070>075-201900-
WESTERN AND SOUTH CENTRAL KENTUCKY

CITY           SKY/WX    TMP DP  RH WIND       PRES   REMARKS
PADUCAH        CLOUDY    59  54  83 S9        29.68F
HENDERSON      CLOUDY    61  52  72 SW12      29.71F
OWENSBORO      PTSUNNY   62  52  69 SW18      29.72F
HOPKINSVILLE   PTSUNNY   60  55  84 S8        29.75F
BOWLING GREEN  CLOUDY    62  52  69 SW12      29.77F
GLASGOW        NOT AVBL
$$

KYZ024-025-028>034-038-045-046-053-201900-
NORTH CENTRAL KENTUCKY

CITY           SKY/WX    TMP DP  RH WIND       PRES   REMARKS
LOUISVILLE/SDF PTSUNNY   62  50  64 SW13      29.73S
LOUISVILLE/LOU CLOUDY    60  50  69 SW9       29.73F
FORT KNOX      CLOUDY    58  51  77 SW14      29.73F
$$

KYZ035>037-039>044-047>052-055>060-089>105-201900-
NORTHEAST KENTUCKY

CITY           SKY/WX    TMP DP  RH WIND       PRES   REMARKS
LEXINGTON      CLOUDY    60  52  74 W14       29.75F
COVINGTON      CLOUDY    57  52  83 SW9G18    29.71F
FRANKFORT      CLOUDY    62  50  64 SW14G25   29.73F
$$

KYZ054-064>069-076>088-106>120-201900-
SOUTHEAST KENTUCKY

CITY           SKY/WX    TMP DP  RH WIND       PRES   REMARKS
JACKSON        CLOUDY    60  52  74 VRB5      29.78F
LONDON         PTSUNNY   62  50  64 SW12      29.78F
SOMERSET       NOT AVBL
MIDDLESBORO    MOSUNNY   61  54  76 S12       29.81F
MONTICELLO     PTCLDY    62  54  74 S9G25     29.81F
$$





USA.gov is the U.S. government's official web portal to all federal, state and local government web resources and services.